Location: Bolzano
(46.5170°N, 11.3670°E)
Time: 08:53:34
(UTC+01:00)

ISS - Visible Passes

Search period start: 22 January 2019 00:00
Search period end: 01 February 2019 00:00
Orbit: 404 x 410 km, 51.6° (Epoch: 23 January)

Date Brightness Start Highest point End Pass type
(mag) Time Alt. Az. Time Alt. Az. Time Alt. Az.
22 Jan -1.4 19:28:53 10° SW 19:30:01 19° SSW 19:30:01 19° SSW visible
23 Jan -2.7 18:37:57 10° SSW 18:40:50 28° SE 18:41:04 28° SE visible
24 Jan -1.8 17:47:26 10° S 17:49:40 17° SE 17:51:54 10° E visible
24 Jan -2.5 19:22:32 10° WSW 19:24:46 40° WSW 19:24:46 40° WSW visible
25 Jan -3.7 18:31:15 10° SW 18:34:29 60° SSE 18:35:40 34° E visible
25 Jan -0.4 20:08:02 10° W 20:08:23 12° W 20:08:23 12° W visible
26 Jan -2.9 17:40:09 10° SSW 17:43:11 36° SE 17:46:15 10° ENE visible
26 Jan -2.9 19:16:27 10° W 19:19:13 45° NW 19:19:13 45° NW visible
27 Jan -3.7 18:24:56 10° WSW 18:28:13 71° NNW 18:29:59 25° NE visible
27 Jan -0.6 20:02:05 10° WNW 20:02:42 14° WNW 20:02:42 14° WNW visible
28 Jan -2.7 19:10:28 10° W 19:13:25 36° NNW 19:13:25 36° NNW visible
29 Jan -3.1 18:18:51 10° W 18:22:01 44° NNW 18:24:07 19° NE visible
29 Jan -0.9 19:56:00 10° WNW 19:56:49 16° NW 19:56:49 16° NW visible
30 Jan -2.6 19:04:26 10° WNW 19:07:27 32° N 19:07:29 32° N visible
31 Jan -2.7 18:12:48 10° WNW 18:15:51 34° N 18:18:09 15° NE visible
31 Jan -1.2 19:49:44 10° WNW 19:50:52 19° NW 19:50:52 19° NW visible
